User: anonymous   Login
Location: Unspecified
(0.0000°N, 0.0000°E)
Time: 23:19:45
(UTC+00:00)
Language:

TURKSAT 3U - Orbit

View from above orbital plane
View from above orbital plane
View from above satellite
View from above satellite

Ground track
Ground track

The orbit data is extracted from the following two-line orbital elements,

1 39152U 13018C   17141.77492375 +.00000328 +00000-0 +49853-4 0  9997
2 39152 097.9469 229.2748 0018207 125.9950 234.2953 14.80266864219666
Epoch (UTC): 21 May 2017 18:35:53
Eccentricity: 0.0018207
inclination: 97.9469°
perigee height: 616 km
apogee height: 641 km
right ascension of ascending node: 229.2748°
argument of perigee: 125.9950°
revolutions per day: 14.80266864
mean anomaly at epoch: 234.2953°
orbit number at epoch: 21966

The dashed part of the orbit path shows where the satellite is in the earth's shadow,  

DLR